Dewpoint
72 73 72 72 73 72 72 71 70 69 70 70 71 71 72 72 71 70 67 65 65 66 67 66 66 66 67 68 68 69 69 69 68 68 69 69 71 74 77 77 78 78 78 78 78 77 76 75 74 74 75 74 73 73 72 72 72 73 73 74 73 73 73 73 73 72 72 72 72 72 71 71 71 71 71 73 71 72 71 70 70 70 69 69 70
72 72 72 71 71 71 72 71 70 69 70 70 71 72 72 71 70 70 69 67 65 66 68 65 65 65 66 67 68 68 69 69 69 68 68 69 70 73 77 77 78 78 78 78 78 78 75 76 74 74 75 74 73 72 73 72 72 73 74 74 73 73 73 73 73 72 72 72 72 72 72 72 72 71 72 72 71 71 70 70 69 70 70 69 70
72 72 71 71 71 71 70 71 70 70 71 72 72 73 73 72 71 70 69 68 67 66 68 65 65 65 67 65 66 67 68 69 69 69 69 69 70 72 74 77 77 78 78 78 78 77 77 76 75 75 74 74 73 72 73 72 72 73 73 73 73 73 72 72 72 72 72 72 72 72 72 71 72 71 71 71 71 70 69 69 70 69 70 69 70
72 71 71 71 71 70 70 71 70 70 72 72 72 73 73 73 73 73 72 70 70 69 69 64 63 63 64 65 64 64 66 67 67 67 68 69 70 70 72 75 78 77 77 77 77 77 77 76 77 75 75 75 75 73 73 73 72 73 73 73 73 72 72 72 72 71 71 71 71 71 72 72 72 71 71 71 70 69 69 68 69 70 70 68 70
71 71 72 70 70 70 70 72 71 71 72 74 74 72 72 71 70 73 72 71 70 69 71 67 62 61 61 62 63 63 64 66 67 66 67 69 70 70 71 73 75 78 78 78 77 77 77 78 77 77 76 76 75 74 73 73 73 73 73 74 73 73 72 72 71 71 71 71 71 70 70 70 71 71 71 71 70 69 69 69 70 70 69 70 70
72 71 71 71 70 70 70 70 71 72 73 73 72 72 72 70 71 70 74 70 68 69 67 64 62 64 63 60 62 62 63 64 65 65 66 67 68 70 70 72 74 75 76 78 79 78 77 77 77 77 77 76 76 75 73 74 73 73 73 74 73 73 72 72 71 71 71 71 71 71 70 70 70 70 70 71 70 70 69 68 69 69 69 69 70
72 72 71 71 71 71 72 72 73 75 74 73 72 72 71 71 72 69 69 70 70 71 67 65 66 63 64 65 61 62 64 63 64 62 62 64 66 67 69 71 72 74 74 74 77 79 79 77 77 78 77 76 77 75 74 74 74 74 74 73 73 73 72 72 71 71 71 71 71 71 71 71 70 70 69 70 70 69 69 68 69 69 70 69 70
73 73 72 72 72 71 71 73 74 74 74 74 74 71 71 71 73 70 65 66 71 67 69 66 65 65 67 65 63 66 62 63 62 62 61 62 65 66 67 69 70 72 76 73 74 75 78 79 77 77 77 77 77 77 75 74 74 74 74 74 73 72 72 72 71 71 71 71 71 71 71 70 70 70 70 69 69 70 70 70 69 69 69 69 69
73 74 74 73 72 71 72 73 75 75 73 73 72 74 71 69 69 73 67 67 68 66 65 69 63 64 65 64 67 71 63 63 62 61 64 64 63 64 66 69 72 77 74 75 74 73 75 77 79 77 78 77 77 77 76 75 74 74 74 74 73 72 72 72 72 71 71 71 71 71 70 70 71 70 69 69 69 70 69 69 69 69 69 69 69
73 74 74 73 73 71 73 75 77 75 73 73 72 73 71 71 69 71 73 70 68 66 64 67 66 64 68 66 66 67 66 66 67 75 67 65 67 67 66 68 72 72 70 70 71 71 71 74 78 79 78 78 77 77 76 75 75 74 74 74 74 73 72 72 72 71 71 71 71 70 70 70 71 70 70 69 69 69 69 69 69 69 69 70 70
74 75 75 75 74 74 74 75 76 75 73 72 72 74 74 71 69 68 71 70 68 69 66 67 67 69 72 71 67 66 67 68 73 69 68 67 67 72 70 68 69 69 70 70 70 71 70 72 73 75 78 78 77 77 77 76 75 74 74 74 74 73 73 72 72 71 71 71 71 70 70 71 71 70 70 70 69 69 69 69 69 69 69 69 69
74 75 75 75 73 74 74 76 75 74 73 72 73 73 72 71 68 70 67 69 71 71 70 67 66 66 68 67 66 67 68 72 69 67 71 68 68 73 68 69 71 69 68 69 71 71 72 72 75 74 75 78 79 78 78 77 76 75 74 74 74 74 74 73 72 71 71 71 71 71 70 70 70 70 70 70 69 69 69 69 69 69 69 69 69
75 75 73 77 75 75 74 74 75 76 75 73 74 75 75 73 74 74 68 67 68 69 68 66 62 60 64 64 65 67 73 72 68 69 69 70 70 67 68 67 65 66 68 70 70 70 71 72 72 73 74 74 78 79 78 78 76 75 75 74 74 74 74 73 72 72 71 71 71 70 70 70 69 70 70 70 70 70 70 70 70 69 69 69 68
75 74 75 75 75 75 74 74 75 74 77 77 77 77 73 72 71 68 70 67 66 70 69 62 61 59 58 61 63 63 68 69 67 69 70 70 70 67 66 66 64 64 66 68 69 72 71 70 72 73 73 74 75 76 78 78 76 75 75 74 74 74 74 74 73 72 71 71 71 71 70 70 69 69 69 70 70 70 70 70 70 69 68 68 68
74 76 74 75 75 75 74 75 75 76 74 72 73 72 72 71 72 69 68 68 70 72 68 62 61 67 64 60 59 58 63 61 66 68 69 68 70 67 70 65 65 66 70 69 69 68 71 72 72 71 72 74 74 74 78 78 76 76 75 75 74 74 74 74 74 73 72 71 71 71 70 70 69 69 69 69 69 69 69 69 69 68 68 68 68
74 74 76 75 75 75 75 75 74 76 74 72 72 72 73 71 73 74 68 65 67 69 72 69 68 61 58 61 59 59 56 57 62 65 69 68 66 67 69 66 66 69 70 68 68 69 69 72 72 71 71 72 74 74 76 77 78 77 76 75 75 75 74 74 74 73 72 71 71 71 70 70 69 69 69 69 69 68 68 69 68 68 68 68 68
73 74 76 75 75 75 74 74 75 74 76 74 73 72 73 72 73 73 70 67 67 69 72 69 66 65 64 61 59 58 57 58 61 62 67 66 63 67 68 70 66 69 69 68 68 68 71 69 69 69 71 72 72 73 74 77 79 78 76 75 75 74 74 74 74 74 73 72 71 71 70 70 70 70 69 69 69 69 69 69 69 69 69 69 69
73 73 74 75 74 75 74 74 74 74 76 74 73 73 71 71 72 72 72 72 67 69 69 72 74 72 66 63 62 60 58 60 60 57 63 70 69 67 68 66 66 71 70 69 69 68 73 70 70 71 71 72 72 72 74 77 79 78 75 75 75 75 74 74 74 74 74 73 71 71 71 70 70 70 70 70 69 69 69 69 69 69 69 69 69
73 73 73 75 75 74 74 74 74 73 76 75 73 72 71 72 75 73 72 75 69 66 69 70 70 70 71 69 70 70 65 61 58 62 57 61 62 64 66 66 70 71 71 70 71 69 68 72 70 71 71 72 72 73 72 75 79 79 77 76 76 75 75 74 74 74 74 74 73 71 71 71 70 70 70 69 69 69 69 69 69 69 69 69 69
73 73 73 75 76 75 74 74 75 75 76 74 73 72 72 73 76 75 76 75 71 68 68 70 68 68 71 67 69 70 68 67 64 58 58 56 59 62 66 65 67 68 72 71 70 69 69 70 70 71 71 72 72 72 73 73 75 79 78 76 76 76 75 75 74 74 74 74 74 73 72 72 71 70 70 70 69 70 69 69 69 69 70 69 69
73 73 73 74 76 76 74 74 74 74 76 75 72 73 73 72 71 72 73 73 73 73 71 69 69 68 65 64 67 66 67 68 68 67 62 59 58 62 63 65 65 66 69 70 70 70 71 72 72 73 73 73 72 73 74 74 74 77 79 77 76 76 75 75 75 74 74 74 74 74 73 73 71 71 70 70 70 70 70 70 70 70 70 69 70
73 73 73 73 74 76 75 74 74 74 76 75 72 72 72 72 72 73 74 73 72 74 72 71 71 71 70 66 64 65 63 62 65 64 63 60 58 58 60 63 63 64 66 69 69 69 70 71 71 72 72 72 72 73 74 74 75 76 78 78 77 76 76 75 75 74 74 74 74 74 74 73 73 72 70 70 70 70 70 70 70 70 70 70 69
72 73 73 73 74 75 75 74 74 75 76 74 72 71 71 72 72 73 73 73 73 72 73 73 73 73 71 67 65 63 63 62 62 64 61 60 61 61 63 65 64 65 66 68 70 69 70 71 71 71 72 72 72 73 74 75 76 77 78 79 77 76 76 76 75 75 75 75 74 74 74 74 74 73 72 71 71 70 70 70 70 70 70 70 70
72 72 73 74 74 74 76 75 75 73 73 74 73 72 72 73 72 72 73 73 73 75 74 73 72 71 71 71 68 67 67 64 64 64 63 62 61 59 62 65 66 66 68 70 70 70 70 69 70 71 72 72 73 74 75 75 74 76 79 79 78 77 77 77 76 75 75 75 75 74 74 74 74 74 73 72 72 72 70 70 70 70 71 71 70
72 72 73 73 74 74 74 74 74 74 74 73 73 73 73 72 72 72 72 72 73 73 72 72 72 71 71 72 71 69 68 67 68 67 65 66 64 63 64 67 64 65 67 69 68 69 70 70 70 71 72 73 74 73 74 74 74 75 78 79 78 77 77 76 76 76 76 75 75 75 74 74 74 74 74 73 72 73 72 71 70 70 70 71 71
71 72 72 73 74 74 74 74 74 74 74 74 74 74 73 73 72 72 72 72 73 73 72 72 72 72 72 71 70 68 67 69 68 68 67 67 65 64 63 65 66 65 66 66 67 65 67 69 70 72 72 73 73 72 73 72 74 76 79 77 77 77 77 76 76 76 76 75 75 75 75 74 74 74 74 74 73 73 73 73 71 71 71 71 72
71 72 73 73 73 73 74 73 73 73 74 74 75 75 74 75 74 73 73 73 73 74 73 73 72 73 72 71 70 70 69 69 69 68 69 67 66 66 64 63 63 64 65 65 65 65 64 67 70 72 71 73 72 71 72 73 75 76 78 75 76 77 77 76 76 76 76 76 75 75 75 75 74 74 74 75 74 73 74 74 73 72 72 71 72
71 72 72 73 73 73 73 74 73 73 73 74 74 75 74 74 73 73 73 76 74 73 73 73 73 73 72 71 70 69 69 68 69 69 69 69 68 68 67 64 62 62 62 61 62 63 67 67 69 71 72 71 72 73 75 75 74 76 76 74 73 76 76 76 76 76 75 76 76 76 76 75 75 74 74 74 74 75 75 75 74 74 73 72 71
71 72 72 72 72 72 72 72 73 73 73 74 74 74 74 75 74 73 73 74 73 73 73 73 73 73 73 72 71 71 70 70 70 69 69 70 70 70 68 66 65 62 60 59 61 62 65 70 66 68 72 72 71 72 73 72 75 75 75 73 72 73 75 75 76 76 75 74 75 75 75 76 76 75 75 75 74 74 74 74 75 75 75 74 73
71 71 71 71 72 74 72 72 72 73 73 73 74 74 74 74 74 74 74 74 73 73 74 74 73 73 73 73 72 71 71 71 70 70 70 69 70 70 70 68 67 64 63 60 62 63 64 67 68 67 70 70 72 72 72 73 75 75 74 73 72 71 72 74 76 75 75 75 74 74 75 75 76 76 75 75 75 74 74 74 74 74 74 74 74
72 72 71 70 70 71 72 72 72 73 73 73 74 74 74 74 74 74 74 73 73 73 73 73 74 73 73 73 72 71 71 71 71 71 72 71 70 71 70 69 68 67 65 62 61 65 66 65 68 70 69 71 71 71 72 72 74 73 72 72 73 73 72 73 74 75 75 75 74 74 74 75 75 75 75 75 75 75 75 75 75 74 75 74 75
70 70 70 70 70 70 70 71 71 72 72 73 74 74 74 74 74 74 74 73 73 73 73 74 74 74 73 72 72 72 72 71 71 70 70 71 71 71 70 69 69 68 67 64 63 63 67 66 67 68 69 69 70 70 71 71 71 73 72 72 72 74 73 71 73 74 74 75 75 74 74 74 74 74 74 75 75 75 75 75 75 75 75 75 75
69 69 69 70 69 69 70 71 71 71 72 72 73 74 74 74 73 73 73 73 73 73 73 73 73 73 73 73 72 72 71 71 70 70 70 69 70 70 70 69 69 69 67 66 64 65 66 69 69 69 70 70 70 72 70 70 70 70 72 74 73 73 72 71 71 72 72 73 74 74 74 74 74 74 74 75 75 75 75 75 75 75 74 75 75
69 68 68 68 69 69 69 70 71 71 71 72 72 73 73 73 73 73 73 72 71 72 71 72 73 73 73 73 73 72 72 71 70 70 70 70 69 70 70 69 68 69 69 67 66 66 64 67 68 69 72 71 70 71 69 69 69 73 72 72 73 72 71 70 71 71 71 72 72 72 73 73 72 73 73 74 75 75 75 75 74 73 73 74 73
69 68 68 67 68 69 68 69 71 71 72 72 72 73 73 73 73 73 73 72 72 72 71 72 72 73 73 73 72 70 70 69 69 69 70 70 70 69 70 70 69 69 69 69 67 66 66 66 68 70 71 72 69 69 72 72 73 73 73 73 72 72 72 70 70 70 70 71 71 70 70 71 71 71 72 72 74 75 75 74 73 72 72 72 70
67 68 68 68 69 70 70 70 69 70 70 71 72 72 73 73 73 73 72 71 71 70 70 70 70 72 72 72 72 71 72 70 69 70 71 71 70 70 69 69 69 69 69 69 68 67 67 66 67 69 71 71 71 73 74 75 74 73 73 72 72 72 71 72 70 70 70 70 70 69 70 69 69 69 69 70 71 71 71 71 70 70 69 70 70
67 67 68 69 69 69 69 69 69 69 70 70 71 72 72 73 73 73 72 72 71 71 70 70 72 71 71 71 71 71 70 70 70 70 70 70 71 71 70 69 69 69 70 70 69 68 67 67 67 70 73 72 72 72 73 73 72 72 72 72 72 71 71 71 71 71 71 70 70 69 68 68 68 68 68 68 68 68 68 68 68 67 68 67 67
67 67 67 70 70 70 69 69 68 69 70 71 71 71 72 72 72 72 72 71 71 70 70 70 71 70 70 71 71 71 71 70 70 70 70 70 70 70 70 70 69 70 70 70 70 69 68 67 68 68 70 71 70 70 70 73 72 72 71 71 71 71 71 71 72 72 71 70 70 68 67 67 67 66 67 66 66 65 65 65 65 64 64 63 62
67 67 69 69 71 70 69 69 69 70 70 72 71 71 71 72 72 71 71 70 70 70 70 70 70 70 70 70 71 71 71 70 70 70 70 70 71 70 71 69 68 69 69 69 70 69 69 68 69 70 70 70 71 70 70 72 72 72 70 70 68 69 71 71 71 71 71 69 69 69 68 68 67 66 64 64 64 64 64 64 64 63 62 61 60
67 67 70 69 69 70 69 69 69 70 71 71 71 71 71 70 71 70 70 70 69 69 70 71 71 70 70 70 70 70 70 70 70 70 70 70 70 70 70 70 69 69 70 70 70 70 70 69 69 70 69 69 70 70 71 69 69 68 70 70 68 68 69 70 71 71 70 70 68 67 68 67 67 66 65 65 65 65 64 64 64 65 64 61 60
69 68 69 69 69 70 70 70 70 71 71 71 71 70 70 70 70 71 70 70 70 70 71 70 70 70 70 70 70 70 72 73 74 73 72 72 70 69 70 70 70 70 71 71 71 69 70 69 69 70 70 70 70 70 70 68 68 68 68 70 69 70 70 71 71 71 71 70 69 67 67 67 67 66 66 65 66 65 65 65 65 66 65 62 61
70 71 70 71 70 69 70 70 71 72 72 72 73 74 73 71 70 71 71 70 71 71 71 70 70 70 70 70 72 74 74 75 75 75 75 74 74 71 70 70 71 71 71 71 71 71 70 69 70 70 69 69 70 69 70 69 70 70 70 69 69 69 69 70 71 70 72 70 68 67 67 67 67 66 66 66 66 69 67 65 65 66 65 63 62
70 71 70 70 70 69 70 70 71 72 72 72 73 70 70 73 72 71 71 71 71 71 71 70 70 70 70 70 71 72 75 75 75 75 75 76 76 75 75 74 75 73 71 70 71 71 70 70 70 70 70 70 71 71 71 71 71 71 70 68 68 68 68 67 67 69 72 70 69 68 68 68 67 66 66 65 65 65 67 66 65 65 64 63 62
70 71 70 69 69 69 69 70 70 71 71 73 69 69 70 70 73 73 72 72 72 72 71 71 71 71 71 71 71 71 71 73 73 74 75 75 75 75 75 75 74 74 74 73 72 70 70 70 70 71 71 71 71 70 71 71 70 69 68 68 67 67 66 66 65 66 69 72 69 68 68 68 67 67 66 65 65 64 65 65 64 63 63 62 62
70 71 70 70 69 69 69 69 69 70 71 70 67 67 68 68 69 74 74 74 73 72 71 71 71 71 71 71 70 70 70 73 73 72 71 72 75 74 74 72 73 73 71 71 73 72 71 71 71 71 71 70 70 71 71 71 72 69 68 68 67 66 66 66 67 67 69 72 69 68 68 68 68 69 66 66 65 65 65 65 64 63 62 62 61
69 70 70 70 70 70 70 70 70 69 68 67 63 64 64 65 66 69 72 73 73 73 72 72 71 70 69 69 69 69 70 70 70 71 70 72 72 72 70 70 70 72 73 73 72 71 73 72 71 71 72 72 72 72 74 73 71 71 70 70 68 67 67 68 68 68 70 73 70 68 67 67 68 68 67 68 66 65 65 63 62 63 62 61 61
70 70 69 70 70 71 70 70 68 66 62 60 59 60 60 61 63 68 69 71 72 72 72 71 69 68 69 69 69 69 69 69 70 72 72 72 72 70 70 70 71 70 70 71 72 72 72 72 72 73 73 73 73 73 72 72 71 71 71 71 70 69 69 70 70 70 70 72 71 68 67 67 68 68 68 68 66 64 63 62 61 62 61 61 60
70 70 71 71 71 70 70 68 66 61 58 57 57 57 58 59 61 67 68 69 70 71 70 70 70 70 69 70 69 70 70 69 68 67 69 72 72 70 70 72 71 70 69 72 67 68 71 71 71 71 72 71 69 71 72 71 71 71 72 72 70 70 69 68 68 68 69 72 71 68 66 67 67 68 68 66 64 63 62 62 61 62 62 61 60
70 70 70 71 70 70 68 64 61 57 57 57 55 55 56 57 62 65 67 69 69 70 70 70 70 70 70 70 69 69 68 65 64 60 64 72 71 69 69 70 70 70 69 67 66 67 66 66 66 66 65 64 64 64 63 64 69 70 70 69 68 69 68 67 67 67 67 68 70 69 67 66 68 68 68 66 64 63 62 61 61 61 61 60 59
70 71 71 69 65 67 64 59 58 57 57 58 54 54 55 57 62 67 68 69 70 70 70 70 69 69 71 73 68 64 62 61 60 60 64 68 68 67 68 68 69 69 65 64 64 65 67 67 67 67 66 66 67 66 66 65 64 69 69 68 68 69 68 68 67 67 67 67 68 70 67 67 68 67 66 65 64 64 63 61 61 61 60 59 58
68 68 68 64 63 62 62 62 64 58 57 58 54 53 54 56 63 66 69 69 70 69 68 67 66 65 64 67 68 65 62 61 57 59 62 66 64 64 66 66 65 64 63 63 64 66 67 68 68 68 69 70 71 71 72 71 71 72 71 70 70 69 67 68 68 68 66 67 68 69 66 67 67 67 66 63 62 63 64 62 62 61 60 60 59